DW8791 Weather Reports


Display with metric or nautical units.
time (UTC)temp
F
wind
direction
speed
MPH
gust
MPH
rain 1hr
in
rain 24hr
in
rain mn
in
humidity
%
barometer
mb
20260508084608 52 187 1.0 5.0 0.00 0.00 0.00 88 1017.0
20260508084108 52 159 2.0 5.0 0.00 0.00 0.00 87 1017.0
20260508083607 52 150 2.0 5.0 0.00 0.00 0.00 88 1017.0
20260508083107 52 171 2.0 5.0 0.00 0.00 0.00 88 1016.9
20260508081607 51 160 2.0 7.0 0.00 0.00 0.00 88 1016.8
20260508081107 51 151 4.0 8.0 0.00 0.00 0.00 89 1016.8
20260508080108 51 166 3.0 8.0 0.00 0.00 0.00 90 1016.7
20260508073607 51 143 1.0 3.0 0.00 0.00 0.00 89 1016.7
20260508073107 50 165 1.0 3.0 0.00 0.00 0.00 89 1016.6
20260508071607 50 156 2.0 5.0 0.00 0.00 0.00 89 1016.6
20260508071106 50 169 1.0 5.0 0.00 0.00 0.00 89 1016.6
20260508070608 50 210 1.0 3.0 0.00 0.00 0.00 89 1016.5
20260508064607 50 174 1.0 3.0 0.00 0.00 0.00 88 1016.3
20260508063607 50 142 1.0 3.0 0.00 0.00 0.00 87 1016.2
20260508063107 50 130 1.0 3.0 0.00 0.00 0.00 87 1016.2
20260508061607 50 162 2.0 5.0 0.00 0.00 0.00 88 1016.0
20260508061107 50 154 2.0 5.0 0.00 0.00 0.00 87 1016.0
20260508060607 50 140 1.0 3.0 0.00 0.00 0.00 88 1016.0
20260508054106 50 166 1.0 3.0 0.00 0.00 0.00 88 1015.8
20260508053607 50 122 2.0 3.0 0.00 0.00 0.00 88 1015.8
20260508051607 49 159 2.0 7.0 0.00 0.00 0.00 88 1015.6
20260508051107 49 160 1.0 3.0 0.00 0.00 0.00 88 1015.6
20260508050607 49 162 1.0 3.0 0.00 0.00 0.00 87 1015.7
20260508044607 50 140 2.0 5.0 0.00 0.00 0.00 87 1015.5
20260508044107 50 123 2.0 5.0 0.00 0.00 0.00 87 1015.5
20260508043607 50 135 3.0 5.0 0.00 0.00 0.00 87 1015.5
20260508043108 50 132 2.0 3.0 0.00 0.00 0.00 86 1015.5
20260508041608 50 129 1.0 3.0 0.00 0.00 0.00 86 1015.6
20260508041107 50 129 0.0 3.0 0.00 0.00 0.00 86 1015.5
20260508040607 50 121 1.0 3.0 0.00 0.00 0.00 86 1015.5
20260508040108 50 132 1.0 3.0 0.00 0.00 0.00 86 1015.4
20260508034607 50 123 2.0 3.0 0.00 0.00 0.00 85 1015.4
20260508034108 50 142 1.0 5.0 0.00 0.00 0.00 85 1015.4
20260508033607 50 134 2.0 5.0 0.00 0.00 0.00 85 1015.4
20260508033107 50 159 2.0 8.0 0.00 0.00 0.00 85 1015.4
20260508031607 50 169 2.0 6.0 0.00 0.00 0.00 85 1015.4
20260508031107 50 149 2.0 3.0 0.00 0.00 0.00 85 1015.3
20260508030108 50 164 0.0 8.0 0.00 0.00 0.00 85 1015.3
20260508024107 50 137 1.0 3.0 0.00 0.00 0.00 85 1015.3
20260508023607 50 138 1.0 3.0 0.00 0.00 0.00 84 1015.4
20260508023108 50 61 0.0 2.0 0.00 0.00 0.00 84 1015.4
20260508021107 50 93 1.0 3.0 0.00 0.00 0.00 83 1015.3
20260508020608 50 86 2.0 3.0 0.00 0.00 0.00 83 1015.2
20260508020106 50 113 0.0 3.0 0.00 0.00 0.00 83 1015.2
20260508014607 51 151 3.0 8.0 0.00 0.00 0.00 82 1015.2
20260508014107 51 161 3.0 7.0 0.00 0.00 0.00 82 1015.2
20260508013607 51 147 3.0 7.0 0.00 0.00 0.00 82 1015.3
20260508013107 51 154 3.0 9.0 0.00 0.00 0.00 82 1015.3
20260508011108 50 161 1.0 6.0 0.00 0.00 0.00 83 1015.4
20260508010608 50 165 2.0 6.0 0.00 0.00 0.00 83 1015.4
20260508010107 50 167 2.0 6.0 0.00 0.00 0.00 83 1015.4
20260508004606 50 158 0.0 3.0 0.00 0.00 0.00 84 1015.4
20260508004108 50 163 0.0 3.0 0.00 0.00 0.00 84 1015.4
20260508003107 49 163 2.0 3.0 0.00 0.00 0.00 84 1015.4
20260508001607 49 139 2.0 5.0 0.00 0.00 0.00 84 1015.5
20260508001107 49 146 2.0 5.0 0.00 0.00 0.00 85 1015.6
20260508000606 49 152 2.0 5.0 0.00 0.00 0.00 85 1015.6
20260508000107 49 150 1.0 5.0 0.00 0.00 0.00 85 1015.6
20260507234607 49 113 2.0 6.0 0.00 0.00 0.00 85 1015.5
20260507234107 49 149 1.0 5.0 0.00 0.00 0.00 85 1015.6
20260507233608 49 114 2.0 3.0 0.00 0.00 0.00 85 1015.6
20260507233106 49 142 1.0 3.0 0.00 0.00 0.00 85 1015.6
20260507231107 49 134 2.0 6.0 0.00 0.00 0.00 86 1015.5
20260507230606 49 137 2.0 6.0 0.00 0.00 0.00 86 1015.5
20260507230107 49 135 2.0 7.0 0.00 0.00 0.00 86 1015.5
20260507224606 49 143 2.0 5.0 0.00 0.00 0.00 86 1015.5
20260507223606 49 141 3.0 5.0 0.00 0.00 0.00 87 1015.6
20260507223107 49 141 2.0 6.0 0.00 0.00 0.00 87 1015.5
20260507221607 49 132 4.0 8.0 0.00 0.00 0.00 87 1015.5
20260507221107 49 151 2.0 5.0 0.00 0.00 0.00 86 1015.5
20260507220608 49 154 2.0 8.0 0.00 0.00 0.00 86 1015.5
20260507220107 49 147 3.0 8.0 0.00 0.00 0.00 86 1015.5
20260507214607 50 149 3.0 8.0 0.00 0.00 0.00 86 1015.4
20260507214106 50 150 3.0 8.0 0.00 0.00 0.00 85 1015.4
20260507213607 50 151 4.0 8.0 0.00 0.00 0.00 85 1015.4
20260507213106 50 148 3.0 8.0 0.00 0.00 0.00 85 1015.4
20260507211106 50 149 4.0 9.0 0.00 0.00 0.00 84 1015.4
20260507210607 50 154 3.0 7.0 0.00 0.00 0.00 84 1015.3
20260507210107 50 140 3.0 7.0 0.00 0.00 0.00 84 1015.4
20260507204607 51 145 3.0 8.0 0.00 0.00 0.00 83 1015.4
20260507204108 51 145 2.0 8.0 0.00 0.00 0.00 83 1015.5
20260507203607 51 143 3.0 8.0 0.00 0.00 0.00 83 1015.5
20260507203107 51 145 3.0 8.0 0.00 0.00 0.00 82 1015.4
20260507201607 51 140 3.0 9.0 0.00 0.00 0.00 81 1015.3
20260507201107 51 136 5.0 9.0 0.00 0.00 0.00 80 1015.2
20260507200607 51 142 2.0 8.0 0.00 0.00 0.00 80 1015.2
20260507200107 51 133 2.0 5.0 0.00 0.00 0.00 79 1015.2
20260507194608 52 144 2.0 8.0 0.00 0.00 0.00 78 1015.0
20260507194107 52 144 3.0 8.0 0.00 0.00 0.00 77 1015.0
20260507193607 52 139 3.0 8.0 0.00 0.00 0.00 77 1015.0
20260507193107 53 152 3.0 12.0 0.00 0.00 0.00 76 1014.9
20260507191608 53 158 4.0 12.0 0.00 0.00 0.00 75 1014.8
20260507191107 53 143 6.0 12.0 0.00 0.00 0.00 74 1014.8
20260507190608 54 147 5.0 12.0 0.00 0.00 0.00 74 1014.8
20260507190107 54 152 5.0 13.0 0.00 0.00 0.00 73 1014.7
20260507184608 54 153 5.0 13.0 0.00 0.00 0.00 75 1014.6
20260507184107 54 125 5.0 16.0 0.00 0.00 0.00 74 1014.5
20260507183107 55 133 9.0 15.0 0.00 0.00 0.00 73 1014.4
20260507181607 55 125 7.0 15.0 0.00 0.00 0.00 72 1014.3
20260507181107 55 132 8.0 14.0 0.00 0.00 0.00 73 1014.2
20260507180106 55 131 7.0 16.0 0.00 0.00 0.00 75 1014.3
20260507174608 55 137 8.0 15.0 0.00 0.00 0.00 76 1014.4
20260507174106 55 120 8.0 15.0 0.00 0.00 0.00 75 1014.3
20260507173607 55 127 6.0 14.0 0.00 0.00 0.00 75 1014.4
20260507171606 55 150 7.0 15.0 0.00 0.00 0.00 75 1014.5
20260507171107 55 116 5.0 15.0 0.00 0.00 0.00 75 1014.5
20260507170608 55 126 8.0 13.0 0.00 0.00 0.00 74 1014.5
20260507170107 55 128 7.0 16.0 0.00 0.00 0.00 74 1014.5
20260507164606 55 128 7.0 18.0 0.00 0.00 0.00 74 1014.4
20260507163607 55 121 9.0 15.0 0.00 0.00 0.00 73 1014.5
20260507163107 55 130 6.0 17.0 0.00 0.00 0.00 74 1014.5
20260507161607 55 124 9.0 18.0 0.00 0.00 0.00 74 1014.6
20260507161106 55 112 9.0 18.0 0.00 0.00 0.00 73 1014.6
20260507160607 55 126 9.0 18.0 0.00 0.00 0.00 74 1014.6
20260507154607 55 148 8.0 16.0 0.00 0.00 0.00 73 1014.7
20260507154106 55 121 6.0 13.0 0.00 0.00 0.00 73 1014.7
20260507153608 55 142 9.0 15.0 0.00 0.00 0.00 73 1014.7
20260507153106 55 125 9.0 20.0 0.00 0.00 0.00 73 1014.7
20260507151607 55 118 10.0 17.0 0.00 0.00 0.00 71 1014.7
20260507151106 56 129 9.0 17.0 0.00 0.00 0.00 71 1014.7
20260507150607 56 128 7.0 17.0 0.00 0.00 0.00 72 1014.7
20260507150106 56 140 9.0 17.0 0.00 0.00 0.00 70 1014.7
20260507144607 56 131 7.0 14.0 0.00 0.00 0.00 70 1014.7
20260507143607 56 115 6.0 14.0 0.00 0.00 0.00 69 1014.8
20260507141107 57 129 7.0 18.0 0.00 0.00 0.00 67 1015.0
20260507140607 57 131 7.0 18.0 0.00 0.00 0.00 67 1014.9
20260507140107 58 134 7.0 17.0 0.00 0.00 0.00 67 1015.0
20260507134607 57 137 6.0 14.0 0.00 0.00 0.00 66 1015.0
20260507134107 57 123 9.0 14.0 0.00 0.00 0.00 67 1015.0
20260507133607 57 114 6.0 14.0 0.00 0.00 0.00 67 1015.0
20260507133106 57 120 7.0 13.0 0.00 0.00 0.00 65 1015.0
20260507131607 57 121 7.0 15.0 0.00 0.00 0.00 66 1015.1
20260507131108 56 127 8.0 15.0 0.00 0.00 0.00 66 1015.1
20260507130606 56 134 8.0 15.0 0.00 0.00 0.00 65 1015.1
20260507130107 57 148 8.0 15.0 0.00 0.00 0.00 63 1015.1
20260507124607 57 116 7.0 14.0 0.00 0.00 0.00 64 1015.1
20260507124108 57 140 5.0 12.0 0.00 0.00 0.00 64 1015.1
20260507123607 56 112 5.0 12.0 0.00 0.00 0.00 65 1015.2
20260507123107 57 147 7.0 12.0 0.00 0.00 0.00 63 1015.2
20260507121606 57 147 5.0 12.0 0.00 0.00 0.00 64 1015.3
20260507120607 57 125 5.0 9.0 0.00 0.00 0.00 63 1015.3
20260507120108 57 132 5.0 12.0 0.00 0.00 0.00 61 1015.3
20260507114606 57 123 6.0 12.0 0.00 0.00 0.00 62 1015.4
20260507113107 57 125 6.0 10.0 0.00 0.00 0.00 60 1015.4
20260507111606 57 89 6.0 12.0 0.00 0.00 0.00 61 1015.5
20260507111107 57 128 6.0 12.0 0.00 0.00 0.00 60 1015.5
20260507110607 56 118 3.0 9.0 0.00 0.00 0.00 62 1015.6
20260507110108 56 156 3.0 9.0 0.00 0.00 0.00 58 1015.6
20260507104607 57 168 1.0 8.0 0.00 0.00 0.00 56 1015.7
20260507104107 57 188 3.0 8.0 0.00 0.00 0.00 57 1015.7
20260507103607 57 202 2.0 9.0 0.00 0.00 0.00 57 1015.7
20260507103107 57 206 4.0 10.0 0.00 0.00 0.00 57 1015.8
20260507101108 56 127 3.0 10.0 0.00 0.00 0.00 61 1015.7
20260507100607 55 145 3.0 10.0 0.00 0.00 0.00 61 1015.8
20260507100107 55 149 5.0 10.0 0.00 0.00 0.00 62 1015.8
20260507094106 56 178 2.0 8.0 0.00 0.00 0.00 60 1015.7
20260507093607 56 152 5.0 9.0 0.00 0.00 0.00 58 1015.7
20260507093106 56 145 5.0 9.0 0.00 0.00 0.00 58 1015.7
20260507091607 54 136 2.0 9.0 0.00 0.00 0.00 62 1015.8
20260507091107 54 199 5.0 9.0 0.00 0.00 0.00 63 1015.8
20260507090606 54 147 4.0 8.0 0.00 0.00 0.00 64 1015.8